User: anonymous   Login
Location: Oshawa
(43.9000°N, 78.8670°W)
Time: 17:14:47
(UTC-05:00)
Language:

Envisat - Orbit

View from above orbital plane
View from above orbital plane
View from above satellite
View from above satellite

Ground track
Ground track

The orbit data is extracted from the following two-line orbital elements,

1 27386U 02009A   15028.41778534  .00000060  00000-0  34161-4 0  8491
2 27386 098.3541 092.9081 0000660 073.0975 287.0285 14.37780934675949
Epoch (UTC): 28 January 2015 10:01:36
Eccentricity: 0.0000660
inclination: 98.3541°
perigee height: 765 km
apogee height: 766 km
right ascension of ascending node: 92.9081°
argument of perigee: 73.0975°
revolutions per day: 14.37780934
mean anomaly at epoch: 287.0285°
orbit number at epoch: 67594

The dashed part of the orbit path shows where the satellite is in the earth's shadow,  

DLR